Regional Weather Roundup
Issued by NWS Newport/Morehead, NC

Current Version | Previous Version | Graphics & Text | Print | Product List | Glossary Off
Versions: 1 2 3 4 5 6 7 8 9 10 11 12 13 14 15 16 17 18 19 20 21 22 23 24 25 26 27 28 29 30 31 32 33 34 35 36 37 38 39 40 41 42 43 44 45 46 47 48 49 50

000
ASUS42 KMHX 290113
RWRMHX
WEATHER ROUNDUP FOR EASTERN NORTH CAROLINA
NATIONAL WEATHER SERVICE NEWPORT/MOREHEAD CITY NC
900 PM EDT TUE JUL 28 2015

NOTE: "FAIR" INDICATES FEW OR NO CLOUDS BELOW 12,000 FEET
WITH NO SIGNIFICANT WEATHER AND/OR OBSTRUCTIONS TO VISIBILITY

NCZ015>017-031-032-045>047-102-103-290200-
NORTH COAST

CITY           SKY/WX    TMP DP  RH WIND       PRES   REMARKS
EDENTON          N/A     80  71  72 S6        29.99R
ELIZABETH CITY PTCLDY    80  70  71 S5        29.99R
KITTY HAWK     CLEAR     79  69  70 CALM      29.99R
MANTEO         CLEAR     77  70  79 E3        30.00S

$$

NCZ045>047-081-094-103-104-290200-
CENTRAL COAST

CITY           SKY/WX    TMP DP  RH WIND       PRES   REMARKS
FRISCO         PTCLDY    78  69  73 E5        29.99S
SWANQUARTER      N/A     77 N/A N/A E2        29.97R

$$

NCZ095-097-098-100-101-290200-
SOUTHERN COAST

CITY           SKY/WX    TMP DP  RH WIND       PRES   REMARKS
BEAUFORT       PTCLDY    79  72  79 E5        29.98R
CEDAR ISLAND     N/A     81 N/A N/A NE8       30.03S
JACKSONVILLE   MOCLDY    77  71  82 SW3       29.98R
PINEY ISLAND   MOCLDY   N/A N/A N/A E6        29.98S
WILMINGTON     MOCLDY    78  71  79 NE5       29.98R


$$

NCZ011>013-027>030-043-044-078>080-089-090>093-098-290200-
COASTAL PLAIN

CITY           SKY/WX    TMP DP  RH WIND       PRES   REMARKS
AHOSKIE        MOCLDY    76  66  70 CALM      29.99R
CLINTON        MOCLDY    81  72  75 CALM      29.98S
ELIZABETHTOWN  MOCLDY    82  69  65 CALM      29.98R
GOLDSBORO      MOCLDY    83  74  73 E5        29.97R
GREENVILLE     MOCLDY    81  72  74 SE5       30.00R
HAVELOCK       MOCLDY    78  70  76 SE5       29.99R
KENANSVILLE    MOCLDY    78  71  78 CALM      29.98F
KINSTON        CLOUDY    81  73  78 CALM      29.99S
NEW BERN       MOCLDY    79  69  71 CALM      29.99S
RICHLANDS      MOCLDY    75  66  73 SW3       29.99S
ROCKY MOUNT    MOCLDY    79  71  76 CALM      29.98R
WASHINGTON     PTCLDY    78  70  77 CALM      29.99R
WHITEVILLE     MOCLDY    81  71  71 CALM      29.97S

$$

AMZ130-135-150-152-154-156-158-170-250-252-270-ANZ085-086-088-633-658-670-290200-
MARINE OBSERVATIONS

STATION/POSITION TIME  TEMP    WIND        PRES    WAVE   SWELL
                       AIR SEA DIR/SP/G            HT/PER HT/PER
                 (UTC) (F)     (DEG/KT/KT) (MB)    (FT/S) (FT/S)
CHESAPEAKE LIGHT 0100   80     170/ 13/ 15 1016.0
64 E VA BEACH    0050   80 81  160/  6/  6 1015.6    3/ 6   3/ 6
DUCK             0000   80 77  140/ 14/ 15 1014.3
2 E DUCK         0011      81                N/A     2/11   2/11
OREGON INLET     0000   80 86  130/  3/  5 1015.5
13E OREGON INLT  0100      79                N/A     2/ 6
HATTERAS CG      0000   81 84   70/  6/  7 1015.1
DIAMOND BUOY     NOT AVBL
CAPE LOOKOUT     0100   81      80/ 10/ 11 1014.9
BEAUFORT LAB     0000   81 81   60/  5/  6 1014.2
30 SE NEW RVR IN NOT AVBL
27 SE WRIGHTSVLE 0000   79 82   80/  8/ 12   N/A
5 SE WRIGHTSVLE  NOT AVBL
225 S CAPE HAT   0050   82 82  230/ 17/ 19 1013.7    8/ 8   2/11
41 SE CHARLESTON 0050   83 84   70/  8/ 10 1013.8    3/ 6   3/ 6

$$


USA.gov is the U.S. government's official web portal to all federal, state and local government web resources and services.